Indianapolis, IN

12:57 PM EDT on June 29, 2017 (GMT -0400)
Indianapolis International

Weather History for KIND - April, 2013

Change the Weather History Date:

Saturday, April 27, 2013

  Actual Average Record
Temperature  
Mean Temperature 53 °F 57 °F  
Max Temperature 62 °F 67 °F 84 °F (1962)
Min Temperature 43 °F 47 °F 30 °F (1976)
Degree Days  
Heating Degree Days 12 9  
Month to date heating degree days 363 346  
Since 1 July heating degree days 5280 5196  
Cooling Degree Days 0 1  
Month to date cooling degree days 9 10  
Year to date cooling degree days 9 12  
Growing Degree Days 2 (Base 50)    
Moisture  
Dew Point 43 °F    
Average Humidity 68    
Maximum Humidity 93    
Minimum Humidity 42    
Precipitation  
Precipitation 0.05 in 0.13 in 1.56 in (2002)
Month to date precipitation 8.28 3.39  
Year to date precipitation 18.02 11.93  
Snow  
Snow 0.00 in 0.00 in T in (1932)
Month to date snowfall T 0.2  
Since 1 July snowfall 34.5 25.9  
Snow Depth 0.00 in    
Sea Level Pressure  
Sea Level Pressure 30.18 in    
Wind  
Wind Speed 8 mph (ESE)    
Max Wind Speed 20 mph    
Max Gust Speed 23 mph    
Visibility 10 miles    
Events Rain    
T = Trace of Precipitation, MM = Missing Value Source: NWS Daily Summary

Daily Weather History Graph

Daily Weather History Graph

Search for Another Location

Airport or City:

Trip Planner

Search our weather history database for the weather conditions in past years. The results will help you decide how hot, cold, wet, or windy it might be!

Date:

Astronomy

Apr. 27, 2013 Rise Set
Actual Time 6:50 AM EDT 8:35 PM EDT
Civil Twilight 6:21 AM EDT 9:04 PM EDT
Nautical Twilight 5:46 AM EDT 9:39 PM EDT
Astronomical Twilight 5:09 AM EDT 10:17 PM EDT
Moon 11:03 PM EDT (4/27) 8:08 AM EDT (4/27)
Length of Visible Light 14h 42m
Length of Day
13h 45m
Waning Gibbous, 95% of the Moon is Illuminated
Apr 27
Waning Gibbous
May 2
Last Quarter
May 9
New
May 18
First Quarter
May 25
Full

Hourly Weather History & Observations

Time (EDT) Temp. Windchill Dew Point Humidity Pressure Visibility Wind Dir Wind Speed Gust Speed Precip Events Conditions
12:54 AM 52.0 °F - 35.1 °F 53% 30.32 in 10.0 mi Calm Calm - N/A   Mostly Cloudy
1:54 AM 51.1 °F - 35.1 °F 54% 30.31 in 10.0 mi ENE 3.5 mph - N/A   Scattered Clouds
2:54 AM 48.9 °F - 36.0 °F 61% 30.30 in 10.0 mi ENE 4.6 mph - N/A   Scattered Clouds
3:54 AM 48.0 °F - 36.0 °F 63% 30.30 in 10.0 mi ENE 3.5 mph - N/A   Scattered Clouds
4:54 AM 45.0 °F 41.2 °F 36.0 °F 71% 30.28 in 10.0 mi ESE 6.9 mph - N/A   Mostly Cloudy
5:54 AM 46.0 °F - 36.0 °F 68% 30.28 in 10.0 mi Calm Calm - N/A   Mostly Cloudy
6:54 AM 45.0 °F 42.6 °F 36.0 °F 71% 30.27 in 10.0 mi East 4.6 mph - N/A   Overcast
7:54 AM 46.0 °F 43.9 °F 36.0 °F 68% 30.27 in 10.0 mi East 4.6 mph - N/A   Overcast
8:54 AM 50.0 °F - 37.0 °F 61% 30.26 in 10.0 mi East 4.6 mph - N/A   Overcast
9:54 AM 55.9 °F - 37.0 °F 49% 30.25 in 10.0 mi East 5.8 mph - N/A   Overcast
10:54 AM 57.9 °F - 37.9 °F 47% 30.22 in 10.0 mi SE 8.1 mph - N/A   Overcast
11:54 AM 59.0 °F - 37.0 °F 44% 30.23 in 10.0 mi East 8.1 mph - N/A   Overcast
12:54 PM 61.0 °F - 37.9 °F 42% 30.21 in 10.0 mi SE 13.8 mph - N/A   Overcast
1:54 PM 62.1 °F - 39.9 °F 44% 30.19 in 10.0 mi SE 13.8 mph - N/A   Overcast
2:54 PM 57.9 °F - 46.0 °F 65% 30.17 in 10.0 mi South 15.0 mph - N/A   Overcast
3:10 PM 57.2 °F - 46.4 °F 67% 30.17 in 10.0 mi SE 11.5 mph - N/A   Overcast
3:40 PM 57.2 °F - 48.2 °F 72% 30.15 in 10.0 mi ESE 9.2 mph - N/A   Overcast
3:54 PM 57.0 °F - 48.9 °F 74% 30.15 in 10.0 mi ESE 10.4 mph - N/A   Overcast
4:54 PM 59.0 °F - 50.0 °F 72% 30.12 in 10.0 mi ESE 12.7 mph - N/A   Overcast
5:23 PM 57.2 °F - 48.2 °F 72% 30.11 in 10.0 mi ESE 11.5 mph - N/A   Overcast
5:54 PM 57.9 °F - 48.9 °F 72% 30.11 in 10.0 mi SE 12.7 mph - N/A   Overcast
6:54 PM 57.9 °F - 48.9 °F 72% 30.09 in 10.0 mi ESE 10.4 mph - N/A   Overcast
7:54 PM 57.0 °F - 50.0 °F 77% 30.06 in 10.0 mi ESE 9.2 mph - 0.01 in Rain Light Rain
8:54 PM 55.0 °F - 51.1 °F 86% 30.04 in 9.0 mi ESE 8.1 mph - 0.00 in Rain Light Rain
9:54 PM 55.0 °F - 52.0 °F 89% 30.03 in 9.0 mi ESE 10.4 mph - 0.02 in Rain Light Rain
10:54 PM 54.0 °F - 51.1 °F 90% 30.01 in 7.0 mi ESE 10.4 mph - 0.01 in Rain Light Rain
11:54 PM 54.0 °F - 52.0 °F 93% 29.99 in 10.0 mi ESE 10.4 mph - 0.01 in Rain Light Rain